This is the latest recevied weather packets stored in our database for station/object XQ6AK-15. If no packets are shown the sender has not sent any weather packets the latest 10 day(s).
| Time | Temp. | Humidity | Pressure | Rain* | Wind** | Luminosity | Snow |
|---|---|---|---|---|---|---|---|
| 1778298365 | 2.78° C | 99% | 1027.9 hPa | 0 mm | - | 0 W/m² | - |
| 1778298061 | 2.78° C | 99% | 1027.9 hPa | 0 mm | - | 0 W/m² | - |
| 1778297759 | 2.22° C | 99% | 1027.8 hPa | 0 mm | - | 0 W/m² | - |
| 1778297455 | 2.22° C | 99% | 1027.8 hPa | 0 mm | - | 0 W/m² | - |
| 1778297153 | 2.22° C | 99% | 1028 hPa | 0 mm | - | 0 W/m² | - |
| 1778296850 | 2.22° C | 99% | 1027.6 hPa | 0 mm | - | 0 W/m² | - |
| 1778296548 | 2.22° C | 99% | 1027.6 hPa | 0 mm | - | 0 W/m² | - |
| 1778296244 | 2.22° C | 99% | 1027.5 hPa | 0 mm | - | 0 W/m² | - |
| 1778295943 | 2.22° C | 99% | 1027.2 hPa | 0 mm | - | 0 W/m² | - |
| 1778295639 | 2.78° C | 99% | 1027.3 hPa | 0 mm | - | 0 W/m² | - |
| 1778295335 | 2.78° C | 99% | 1027.3 hPa | 0 mm | - | 0 W/m² | - |
| 1778295031 | 2.78° C | 99% | 1027.3 hPa | 0 mm | - | 0 W/m² | - |
| 1778294727 | 2.78° C | 99% | 1027.1 hPa | 0 mm | - | 0 W/m² | - |
| 1778294423 | 2.78° C | 99% | 1026.9 hPa | 0 mm | - | 0 W/m² | - |
| 1778294121 | 3.33° C | 99% | 1027 hPa | 0 mm | - | 0 W/m² | - |
| 1778293818 | 3.33° C | 99% | 1027 hPa | 0 mm | - | 0 W/m² | - |
| 1778293514 | 3.33° C | 99% | 1027 hPa | 0 mm | - | 0 W/m² | - |
| 1778293212 | 3.33° C | 99% | 1026.8 hPa | 0 mm | - | 0 W/m² | - |
| 1778292909 | 2.78° C | 99% | 1026.8 hPa | 0 mm | - | 0 W/m² | - |
| 1778292606 | 3.33° C | 99% | 1026.8 hPa | 0 mm | - | 0 W/m² | - |
| 1778292304 | 3.89° C | 99% | 1026.8 hPa | 0 mm | - | 0 W/m² | - |
| 1778292001 | 3.89° C | 99% | 1026.8 hPa | 0 mm | - | 0 W/m² | - |
| 1778291700 | 3.33° C | 99% | 1026.6 hPa | 0 mm | - | 0 W/m² | - |
| 1778291396 | 3.33° C | 99% | 1026.7 hPa | 0 mm | - | 0 W/m² | - |
| 1778291093 | 3.33° C | 99% | 1026.7 hPa | 0 mm | - | 0 W/m² | - |
* Rain latest hour (hover to see other rain measurements)
** Current wind speed in m/s (hover to see current wind gust speed)